Tracking 20753 objects as of 7-Jun-2020
HD Live streaming from Space Station
objects crossing your sky now
Track the most recent launched group of Starlink satellites

ARIANE 5 R/B

Track ARIANE 5 R/B now!


NORAD ID: 41593
Int'l Code: 2016-039C
Perigee: 246.0 km
Apogee: 35,267.4 km
Inclination: 5.7 °
Period: 621.6 minutes
Semi major axis: 24127 km
RCS: Unknown
Launch date: June 18, 2016
Source: France (FR)
Launch site: FRENCH GUIANA (FRGUI)

Note: This is a ROCKET BODY
aabbcc
Your satellite tracking list
Your tracking list is empty




NASA's NSSDC Master Catalog

Two Line Element Set (TLE):
1 41593U 16039C   20158.13849410 +.00001888 +00000-0 +48047-3 0  9998
2 41593 005.6738 170.7190 7257505 298.5397 007.8846 02.31648341033373
Source of the keplerian elements: AFSPC